Weather Roundup
Issued by NWS Corpus Christi, TX

Home | Current Version | Previous Version | Text Only | Print | Product List | Glossary On
Versions: 1 2 3 4 5 6 7 8 9 10 11 12 13 14 15 16 17 18 19 20 21 22 23 24 25 26 27 28 29 30 31 32 33 34 35 36 37 38 39 40 41 42 43 44 45 46 47 48 49 50
000
ASUS44 KCRP 010710
HRRCRP

SOUTH TEXAS REGIONAL WEATHER ROUNDUP
NATIONAL WEATHER SERVICE CORPUS CHRISTI TX
200 AM CDT MON MAY 01 2017


TXZ229>244-010800-
...CORPUS CHRISTI AREA OBSERVATIONS...

CITY           SKY/WX    TMP DP  RH WIND       PRES   REMARKS
CORPUS CHRISTI CLEAR     58  52  80 CALM      29.99R
NAS CORPUS CHR CLEAR     66  57  72 SE7       29.99R
ROCKPORT       PTCLDY    70  54  56 SE6       29.99R
KINGSVILLE NAS CLEAR     58  55  90 CALM      29.99R
ALICE          PTCLDY    55  48  77 CALM      29.99R
ORANGE GROVE   CLEAR     59  50  72 CALM      30.00S
FALFURRIAS     CLEAR     61  50  67 CALM      29.98F
$$

...VICTORIA AREA OBSERVATIONS...

CITY           SKY/WX    TMP DP  RH WIND       PRES   REMARKS
VICTORIA       CLEAR     56  50  80 CALM      30.00R
BEEVILLE       FAIR      59  50  73 S3        29.99S
PLEASANTON     CLEAR     50  43  78 CALM      29.99S
SAN ANTONIO    CLEAR     59  41  51 CALM      30.01R
$$

...LAREDO AREA OBSERVATIONS...

CITY           SKY/WX    TMP DP  RH WIND       PRES   REMARKS
LAREDO         CLEAR     64  41  42 E7        29.98R
COTULLA        CLEAR     63  33  32 E6        29.97S
DEL RIO        CLEAR     59  38  45 NE5       29.98R
MCALLEN        CLEAR     64  55  72 SE5       29.99S
HEBBRONVILLE   CLEAR     55  46  69 CALM      30.00S
$$

...OTHER TEXAS OBSERVATIONS...

CITY           SKY/WX    TMP DP  RH WIND       PRES   REMARKS
BROWNSVILLE    CLEAR     62  56  80 CALM      29.99S
HOUSTON        CLEAR     54  48  80 CALM      29.97S
COL. STATION   CLEAR     58  41  53 CALM      29.97F
AUSTIN         CLEAR     52  46  80 W3        29.99S
WACO           CLEAR     46  42  86 CALM      29.93F
FORT WORTH     CLEAR     54  34  46 W9        29.91F
WICHITA FALLS  CLEAR     43  33  68 W10       29.91R
LUBBOCK        PTCLDY    42  33  70 E8        29.90S
EL PASO        CLEAR     69   8   9 W14       29.99R
$$

...MARINE OBSERVATIONS...

STATION/POSITION TIME  SKY/WX   TEMP    WIND        PRES    VSBY  WAVE   SWELL
                                AIR SEA DIR/SP/G                  HT/PER HT/PER
                 (UTC)          (F)     (DEG/KT/KT) (MB)    (MI)  (FT/S) (FT/S)
PORT ARANSAS     0600            72 77  130/  9/ 10 1015.4R
BUOY 90 E PORT A 0650            73 77   50/ 12/ 16 1014.9R         5/ 9   5/ 9
BUOY 45 SE BAFFI 0650            73     130/  8/ 12 1014.5R         7/10   7/10
BUOY 200 E PT IS 0650            75 79   10/ 17/ 19 1014.3R         8/ 9   5/ 9
BUOY 15 E GALVES 0650            71 75  220/  4/  6 1015.1F         3/ 9   3/ 9
$$



USA.gov is the U.S. government's official web portal to all federal, state and local government web resources and services.